TimeGMT,TemperatureF,Dew PointF,Humidity,Sea Level PressureIn,VisibilityMPH,Wind Direction,Wind SpeedMPH,Gust SpeedMPH,PrecipitationIn,Events,Conditions,WindDirDegrees,DateUTC
12:00 AM,39.2,35.6,87,30.27,6.2,NW,2.3,-,N/A,,Overcast,320,2013-03-03 00:00:00
12:30 AM,39.2,35.6,87,30.27,6.2,NW,3.5,-,N/A,,Mostly Cloudy,320,2013-03-03 00:30:00
1:00 AM,39.2,35.6,87,30.27,6.2,WNW,2.3,-,N/A,,Mostly Cloudy,290,2013-03-03 01:00:00
1:30 AM,39.2,37.4,93,30.27,6.2,SW,3.5,-,N/A,,Mostly Cloudy,230,2013-03-03 01:30:00
2:00 AM,39.2,35.6,87,30.27,6.2,SSW,2.3,-,N/A,,Mostly Cloudy,210,2013-03-03 02:00:00
2:30 AM,39.2,35.6,87,30.24,6.2,WSW,4.6,-,N/A,,Overcast,240,2013-03-03 02:30:00
3:00 AM,39.2,35.6,87,30.24,6.2,West,4.6,-,N/A,,Overcast,260,2013-03-03 03:00:00
3:30 AM,39.2,35.6,87,30.24,6.2,West,3.5,-,N/A,,Overcast,280,2013-03-03 03:30:00
4:00 AM,39.2,35.6,87,30.24,6.2,Variable,2.3,-,N/A,,Overcast,0,2013-03-03 04:00:00
4:30 AM,39.2,35.6,87,30.21,6.2,West,4.6,-,N/A,,Overcast,270,2013-03-03 04:30:00
5:00 AM,39.2,35.6,87,30.21,6.2,WNW,3.5,-,N/A,,Overcast,290,2013-03-03 05:00:00
5:30 AM,39.2,35.6,87,30.21,6.2,Variable,2.3,-,N/A,,Overcast,0,2013-03-03 05:30:00
6:00 AM,38,36,88,30.24,16,NE,2.2,,,,Overcast,40,2013-03-03 06:00:00
6:00 AM,37.4,35.6,93,30.21,6.2,Variable,1.2,-,N/A,,Overcast,0,2013-03-03 06:00:00
6:30 AM,39.2,35.6,87,30.21,6.2,North,1.2,-,N/A,,Overcast,360,2013-03-03 06:30:00
7:00 AM,37.4,35.6,93,30.21,6.2,Variable,1.2,-,N/A,,Overcast,0,2013-03-03 07:00:00
7:30 AM,39.2,35.6,87,30.21,6.2,Variable,2.3,-,N/A,Fog,Patches of Fog,0,2013-03-03 07:30:00
8:00 AM,39.2,35.6,87,30.21,6.2,Variable,1.2,-,N/A,,Mostly Cloudy,0,2013-03-03 08:00:00
8:30 AM,39.2,37.4,93,30.21,6.2,ESE,4.6,-,N/A,,Mostly Cloudy,110,2013-03-03 08:30:00
9:00 AM,41.0,37.4,87,30.21,6.2,Variable,3.5,-,N/A,,Mostly Cloudy,0,2013-03-03 09:00:00
9:30 AM,41.0,37.4,87,30.21,6.2,SSE,4.6,-,N/A,,Mostly Cloudy,150,2013-03-03 09:30:00
10:00 AM,42.8,37.4,81,30.21,6.2,Variable,2.3,-,N/A,,Mostly Cloudy,0,2013-03-03 10:00:00
10:30 AM,42.8,37.4,81,30.21,6.2,Variable,3.5,-,N/A,,Mostly Cloudy,0,2013-03-03 10:30:00
11:00 AM,42.8,37.4,81,30.21,6.2,SSE,4.6,-,N/A,,Mostly Cloudy,150,2013-03-03 11:00:00
11:30 AM,42.8,37.4,81,30.18,6.2,SSE,5.8,-,N/A,,Mostly Cloudy,150,2013-03-03 11:30:00
12:00 PM,44,36,65,30.21,19,SSE,6.7,,,,Mostly Cloudy,160,2013-03-03 12:00:00
12:00 PM,44.6,35.6,71,30.18,6.2,South,5.8,-,N/A,,Mostly Cloudy,170,2013-03-03 12:00:00
12:30 PM,44.6,33.8,66,30.18,6.2,SSE,8.1,-,N/A,,Mostly Cloudy,150,2013-03-03 12:30:00
1:00 PM,44.6,32.0,61,30.15,6.2,SSE,9.2,-,N/A,,Mostly Cloudy,150,2013-03-03 13:00:00
1:30 PM,46.4,32.0,57,30.15,6.2,SE,9.2,-,N/A,,Mostly Cloudy,130,2013-03-03 13:30:00
2:00 PM,46.4,32.0,57,30.15,6.2,SE,11.5,-,N/A,,Partly Cloudy,130,2013-03-03 14:00:00
2:30 PM,46.4,32.0,57,30.15,6.2,SE,11.5,-,N/A,,Partly Cloudy,140,2013-03-03 14:30:00
3:00 PM,44.6,32.0,61,30.12,6.2,SE,11.5,-,N/A,,Partly Cloudy,130,2013-03-03 15:00:00
3:30 PM,44.6,32.0,61,30.12,6.2,ESE,11.5,-,N/A,,Partly Cloudy,120,2013-03-03 15:30:00
4:00 PM,44.6,32.0,61,30.12,6.2,SE,11.5,-,N/A,,Partly Cloudy,130,2013-03-03 16:00:00
4:30 PM,42.8,33.8,70,30.09,6.2,SE,11.5,-,N/A,,Partly Cloudy,140,2013-03-03 16:30:00
5:00 PM,42.8,33.8,70,30.09,6.2,SE,11.5,-,N/A,,Partly Cloudy,130,2013-03-03 17:00:00
5:30 PM,41.0,33.8,76,30.09,6.2,SE,11.5,-,N/A,,Partly Cloudy,140,2013-03-03 17:30:00
6:00 PM,40,32,65,30.12,7,SE,6.7,,,,Scattered Clouds,140,2013-03-03 18:00:00
6:00 PM,39.2,32.0,75,30.09,6.2,SE,6.9,-,N/A,,Partly Cloudy,140,2013-03-03 18:00:00
6:30 PM,39.2,32.0,75,30.09,6.2,SE,6.9,-,N/A,,Partly Cloudy,130,2013-03-03 18:30:00
7:00 PM,37.4,32.0,81,30.09,6.2,SE,6.9,-,N/A,,Partly Cloudy,130,2013-03-03 19:00:00
7:30 PM,35.6,33.8,93,30.09,6.2,SE,8.1,-,N/A,,Partly Cloudy,130,2013-03-03 19:30:00
8:00 PM,37.4,33.8,87,30.06,6.2,SE,5.8,-,N/A,,Scattered Clouds,130,2013-03-03 20:00:00
8:30 PM,37.4,33.8,87,30.06,5.6,ESE,8.1,-,N/A,,Mostly Cloudy,120,2013-03-03 20:30:00
9:00 PM,39.2,33.8,81,30.06,5.6,SE,13.8,-,N/A,,Mostly Cloudy,130,2013-03-03 21:00:00
9:30 PM,39.2,33.8,81,30.06,6.2,SE,10.4,-,N/A,,Mostly Cloudy,130,2013-03-03 21:30:00
10:00 PM,39.2,33.8,81,30.06,6.2,SE,10.4,-,N/A,,Mostly Cloudy,130,2013-03-03 22:00:00
10:30 PM,41.0,32.0,70,30.06,6.2,SE,11.5,-,N/A,,Mostly Cloudy,130,2013-03-03 22:30:00
11:00 PM,39.2,32.0,75,30.06,6.2,SSE,11.5,-,N/A,,Mostly Cloudy,150,2013-03-03 23:00:00
11:30 PM,39.2,32.0,75,30.04,6.2,SSE,9.2,-,N/A,,Mostly Cloudy,150,2013-03-03 23:30:00